Find Starlink 11482

NORAD ID: 62520 Int'l Des: 2025-004 Owner: SPXS Country: US Constellation: starlink operational
LEOCIRCULAR

リアルタイム位置

3D地球を読み込み中...

Starlink 11482について

説明を読み込み中...

次回通過

Passes for default location (London). Set your location on the main map for personalized predictions.

高度履歴

Loading altitude history...

軌道要素

1 62520U 25004K 26124.97015987 .00203325 00000-0 15471-2 0 9992
2 62520 42.9999 91.1586 0004190 291.7756 68.2665 15.70872304 76069
Epoch: May 4, 2026 • Age: 15 hours

現在のステータス

高度 366.2 km
速度 7.69 km/s
衛星直下点 -42.83°S, 70.2°W
打ち上げ日 Jan 8, 2025
運用期間 1.3 years
タイプ internet

技術仕様

分類 Payload
質量 960.00 kg
乾燥質量 910.00 kg
総質量 960.00 kg
長さ 0.30 m
直径 4.10 m
スパン 29.00 m
形状 Box + pan
製造者 SPXS
バスタイプ Starlink V2MD
フェーズステータス In Orbit
所有者/国 SPXS/US

Most Searched